FLOCK 4H 1

导读

FLOCK 4H 1是美国发射的一颗遥感卫星,于2025年11月28日发射升空。该卫星属于Flock系列,延续了行星实验室(Planet Labs)的成像卫星布局,旨在提供高分辨率对地观测服务,可服务于农业监测、城市规划、自然资源管理、灾害评估等多个领域,进一步补充现有对地观测卫星网络的覆盖能力与数据更新频次,助力全球地理空间信息的持续获取与应用。

Basic Information
目录编号:
66704
目录名称:
FLOCK 4H 1
国际标识:
2025-276AQ
轨道中心:
EARTH
卫星名称:
FLOCK 4H 1
卫星全名:
FLOCK 4H 1
卫星状态:
在轨 (已飞行281 天)
发射日期:
2025-11-28 UTC
国别 :
美国 (US)
星等 :
--
Orbit Information
数据来源 国际轨道数据
星历时间: 2026-09-05T20:13:48+0800
6小时前
查看轨道信息
半长轴: 6879.839km
偏心率: 0.0003248
轨道倾角: 97.412°
近地点辐角 65.236°
升交点赤经 320.943°
平近点角 294.922°
近地点: 499.467km
远地点: 503.937km
周期: 94.651分钟
每日圈数: 15.21372
Detailed Information
使用方式:
暂无
2D Orbit Map
3D Orbit Map
Orbit Altitude Analysis Chart
Orbit Inclination Analysis Chart
Orbit Comprehensive Analysis Chart
View Comprehensive Chart
Conjunction Data List
Event ID Objects TCA Miss Dist (km) Collision Risk Probability Collision Risk Index (CRI) Action
CDM_260906-091106-670406-843523
2026-09-06T
09:11:42+0000
1.013 km
极远距离
2.336542E-5 中风险 0.62
CDM_260907-174305-233206-670421
2026-09-07T
17:43:24+0000
2.992 km
极远距离
1.312874E-6 低风险 0.37
CDM_260906-082106-670406-728024
2026-09-06T
08:21:34+0000
2.829 km
极远距离
2.560596E-7 极低风险 0.23